www.pogodaiklimat.ru

Погода и климат >> Архив погоды >> Россия >> Якутия >> Хабардино


ПОГОДА в Хабардино

  • Прогноз погоды в Хабардино
  • Монитор погоды в Хабардино

АРХИВ ПОГОДЫ в Хабардино

Время (UTC), дата Ветер
(напр.,м/с)
 
Видим.   Явления Облачность Т
(С)
Тd
(С)
f
(%)
Тe
(С)
Тes
(С)
Комфортность P
(гПа)
Po
(гПа)
Тmin
(С)
Tmax
(С)
R
(мм)
R24
(мм)
S
(см)
06 9.01 штиль 0 50 км {снег} 3/0
[Ci sp]
-39.0 -41.2 79 -39 -39 опасность
обморожения
1008.5 972.3
09 9.01 штиль 0 20 км 3/0
[Ci sp]
-40.3 -42.7 78 -40 -40 опасность
обморожения
1011.0 974.5
12 9.01 штиль 0 20 км ясно -43.4 -45.7 78 -43 -43 опасность
обморожения
1013.9 976.1 -34.8 0.0
15 9.01 штиль 0 20 км ясно -45.1 -47.2 79 -45 -45 опасность
обморожения
1014.4 977.0
18 9.01 штиль 0 20 км 3/0
[Ci fib]
-46.2 -48.1 81 -46 -46 опасность
обморожения
1015.2 977.6
21 9.01 штиль 0 20 км ясно -46.3 -48.1 82 -46 -46 опасность
обморожения
1015.3 977.7
00 10.01 штиль 0 20 км ясно -47.2 -49.0 82 -47 -47 опасность
обморожения
1015.1 977.4 -47.2 29
03 10.01 штиль 0 50 км 8/0
[Ci fib]
-46.5 -49.0 75 -47 -46 опасность
обморожения
1014.5 976.8
06 10.01 штиль 0 50 км 9/0
[Ci fib]
-43.9 -45.7 82 -44 -44 опасность
обморожения
1013.4 976.3
09 10.01 штиль 0 20 км 6/0
[Ci fib]
-42.0 -44.4 77 -42 -42 опасность
обморожения
1012.5 975.7
12 10.01 штиль 0 20 км 8/0
[Ci fib]
-42.9 -45.0 80 -43 -43 опасность
обморожения
1012.3 975.3 -42.0
15 10.01 штиль 0 10 км слаб. снег 10/0
[Cs]
-40.2 -42.2 81 -40 -40 опасность
обморожения
1010.9 974.4
18 10.01 штиль 0 10 км слаб. снег 10/0
[Cs]
-39.4 -41.7 79 -39 -39 опасность
обморожения
1010.1 973.8
21 10.01 штиль 0 20 км {снег} 10/0
[Cs]
-38.3 -40.3 81 -38 -38 опасность
обморожения
1009.8 973.6
00 11.01 штиль 0 20 км {снег} 6/0
[Ci fib]
-40.5 -42.7 79 -41 -41 опасность
обморожения
1010.1 973.5 -43.0 0.5 29
03 11.01 штиль 0 50 км 4/0
[Ac trans Ci fib]
-42.4 -44.4 81 -42 -42 опасность
обморожения
1011.3 974.5
06 11.01 штиль 0 50 км 3/0
[Ci fib]
-43.0 -45.0 80 -43 -43 опасность
обморожения
1013.1 976.1
09 11.01 штиль 0 20 км ясно -46.0 -48.1 79 -46 -46 опасность
обморожения
1015.4 977.8
12 11.01 штиль 0 20 км ясно -47.9 -50.0 79 -48 -48 опасность
обморожения
1017.8 979.8 -42.4
15 11.01 штиль 0 20 км ясно -48.5 -50.0 84 -49 -49 опасность
обморожения
1018.7 980.5
18 11.01 штиль 0 20 км 3/0
[Ci fib]
-49.1 -51.2 78 -49 -49 опасность
обморожения
1019.3 981.1
21 11.01 ЮЗ 1 20 км 10/0
[Ac trans Cs]
-40.0 -42.2 79 -45 -45 опасность
обморожения
1020.3 983.5
00 12.01 штиль 0 20 км 8/0
[Ci fib]
-36.7 -38.8 81 -37 -37 опасность
обморожения
1020.9 984.6 -49.1 29
03 12.01 Ю 1 50 км 8/0
[Ac trans Ci fib]
-33.0 -35.4 79 -37 -37 опасность
обморожения
1011.4 985.6
06 12.01 З 2 50 км 10/0
[Ci fib]
-30.8 -33.2 79 -38 -38 опасность
обморожения
1032.2 986.7
09 12.01 СЗ 1 20 км 10/0
[Cs]
-32.5 -34.8 80 -37 -37 опасность
обморожения
1023.5 987.7
12 12.01 штиль 0 20 км 9/0
[Ci fib]
-34.5 -36.8 79 -35 -35 опасность
обморожения
1024.7 988.5 -30.4
15 12.01 штиль 0 20 км 6/0
[Ci fib]
-41.9 -43.8 82 -42 -42 опасность
обморожения
1026.3 988.9
18 12.01 штиль 0 20 км 6/0
[Ci fib]
-43.0 -45.0 80 -43 -43 опасность
обморожения
1026.7 989.2
21 12.01 штиль 0 20 км 3/0
[Ci fib]
-47.6 -50.0 76 -48 -48 опасность
обморожения
1028.1 989.7
00 13.01 штиль 0 20 км 4/0
[Ci fib]
-47.5 -50.0 75 -48 -48 опасность
обморожения
1028.6 990.2 -47.7 29
03 13.01 штиль 0 50 км 8/0
[Ci fib]
-45.7 -48.1 76 -46 -46 опасность
обморожения
1028.5 990.5
06 13.01 штиль 0 50 км 8/0
[Ac trans Ci fib]
-44.3 -46.4 79 -44 -44 опасность
обморожения
1028.8 991.1
09 13.01 штиль 0 20 км 4/0
[Ci fib]
-48.2 -50.0 81 -48 -48 опасность
обморожения
1031.6 993.1
12 13.01 штиль 0 20 км ясно -50.9 -52.5 83 -51 -51 опасность
обморожения
1033.8 994.7 -44.3
15 13.01 штиль 0 20 км ясно -53.0 -54.1 88 -53 -53 опасность
обморожения
1035.6 996.1
18 13.01 штиль 0 20 км ясно -54.6 -55.9 85 -55 -55 опасность
обморожения
1036.9 997.0
21 13.01 штиль 0 20 км ясно -54.5 -55.9 84 -55 -55 опасность
обморожения
1037.5 997.5
00 14.01 штиль 0 20 км ясно -54.9 -55.9 88 -55 -55 опасность
обморожения
1037.2 997.3 -55.0 29
03 14.01 штиль 0 50 км ясно -55.0 -55.9 90 -55 -55 опасность
обморожения
1036.7 996.8
06 14.01 штиль 0 50 км ясно -53.0 -54.1 88 -53 -53 опасность
обморожения
1035.5 996.0
09 14.01 штиль 0 50 км ясно -53.0 -54.1 88 -53 -53 опасность
обморожения
1035.5 996.0
12 14.01 штиль 0 20 км ясно -54.1 -55.9 80 -54 -54 опасность
обморожения
1035.3 995.6 -53.0
15 14.01 штиль 0 20 км ясно -54.7 -55.9 86 -55 -55 опасность
обморожения
1035.4 995.5
18 14.01 штиль 0 20 км 3/0
[Ci fib]
-55.4 -58.3 70 -55 -55 опасность
обморожения
1035.1 995.2
21 14.01 штиль 0 20 км ясно -55.1 -55.9 91 -55 -55 опасность
обморожения
1037.0 997.1
00 15.01 штиль 0 20 км ясно -54.9 -55.9 88 -55 -55 опасность
обморожения
1038.2 998.2 -55.4 29
06 15.01 штиль 0 50 км 4/0
[Ci fib]
-52.0 -54.1 78 -52 -52 опасность
обморожения
1038.2 998.8
09 15.01 штиль 0 20 км 6/0
[Ci fib]
-52.1 -54.1 79 -52 -52 опасность
обморожения
1038.7 999.3
12 15.01 штиль 0 20 км 6/0
[Ci fib]
-52.1 -54.1 79 -52 -52 опасность
обморожения
1038.7 999.3
15 15.01 штиль 0 20 км 10/0
[Ac trans Cs]
-50.0 -52.5 75 -50 -50 опасность
обморожения
1038.4 999.3 -50.0
18 15.01 штиль 0 20 км 10/0
[Ac trans Cs]
-48.4 -50.0 83 -48 -48 опасность
обморожения
1037.0 998.3
21 15.01 В 1 20 км 10/0
[Ac trans Cs]
-43.6 -45.7 80 -49 -49 опасность
обморожения
1032.1 994.3
00 16.01 штиль 0 10 км слаб. снег 10/0
[Ac trans Cs]
-41.0 -43.2 79 -41 -41 опасность
обморожения
1029.2 991.9 -50.0 0.6 29
03 16.01 штиль 0 20 км слаб. снег 10/0
[Ac trans Cs]
-38.1 -40.3 80 -38 -38 опасность
обморожения
1025.5 988.8

 

Местоположение метеостанции Хабардино (Якутия, Россия): широта 64.60 долгота 112.50 высота над уровнем моря 251 м.

В архиве по умолчанию представлена погода в Хабардино за последнюю неделю. Архивные данные за месяц целиком и за предыдущие месяцы, начиная с января 2011 года, Вы можете получить, выбрав интересующий диапазон дат из раскрывающегося списка и нажав кнопку "Ввод!".


*Определитесь, кто Вы:
робот инопланетянин человек

Внимание! Время в таблицах - всемирное. Для получения местного времени необходимо прибавить поправку, которая равна 9 ч.

Смотрите также архив погоды в соседних городах и на ближайших метеорологических станциях:

Погода в Айхале (Якутия, Россия) (156 км)
Погода в Чернышевском (Якутия, Россия) (175 км)
Погода в Шелагонцах (Якутия, Россия) (200 км)
Погода в Чумпуруке (Якутия, Россия) (215 км)
Погода в Полярном (Якутия, Россия) (237 км)
Погода в Туой-Хае (Якутия, Россия) (239 км)
Погода в Мирном (Якутия, Россия) (239 км)
Погода в Эйке (Якутия, Россия) (278 км)
Погода в Крестяхе (Якутия, Россия) (315 км)
Погода в Нюрбе (Якутия, Россия) (319 км)

Пояснения к столбцам:

Ветер - указаны скорость ветра в м/с - средняя за 10 мин, порывы в срок и между сроками (в фигурных скобках) и направление, откуда дует ветер: С - северный, СВ - северо-восточный, В - восточный, ЮВ - юго-восточный, Ю - южный, ЮЗ - юго-западный, З - западный, СЗ - северо-западный.
Видимость - горизонтальная дальность видимости в метрах или километрах. При видимости от 1 до 10 км при отсутствии осадков обычно наблюдается дымка, при ухудшении видимости до 1 км и менее - туман. В сухую погоду видимость может ухудшаться дымом, пылью или мглою.
Явления - указаны атмосферные явления, наблюдавшиеся в срок или в последний час перед сроком; фигурными скобками обозначены явления, наблюдавшиеся между сроками (за 1-3 часа до срока); квадратными скобками обозначены град или гололедные отложения с указанием их диаметра в мм.
Облачность - указаны через наклонную черту общая и нижняя облачность в баллах и высота нижней границы облаков в метрах; квадратными скобками обозначены формы облаков: Ci - перистые, Cs - перисто-слоистые, Cc - перисто-кучевые, Ac - высококучевые, As - высокослоистые, Sc - слоисто-кучевые, Ns - слоисто-дождевые, Cu - кучевые, Cb - кучево-дождевые. Подробнее классификацию облаков см. в Атласе облаков (PDF).
T - Температура воздуха - температура, измеренная на высоте 2 м над землей.
Td - Температура точки росы - температура, при понижении до которой содержащийся в воздухе водяной пар достигнет насыщения.
f - Относительная влажность воздуха - влажноcть воздуха, измеренная на высоте 2 м над землей.
Te - Эффективная температура - температура, которую ощущает одетый по сезону человек в тени. Характеристика душности погоды. При расчете учитывается влияние влажности воздуха и скорости ветра на теплоощущения человека.
Tes - Эффективная температура на солнце - температура, которую ощущает человек, с поправкой на солнечный нагрев. Характеристика знойности погоды. Зависит от высоты солнца над горизонтом, облачности и скорости ветра. Ночью, в пасмурную погоду, а также при ветре 12 м/с и более поправка равна нулю.
P - Атмосферное давление - приведенное к уровню моря атмосферное давление.
Po - Атмосферное давление - измеренное на уровне метеостанции атмосферное давление.
Tmin - Минимальная температура - минимум температуры воздуха на высоте 2 м над землей.
Tmax - Максимальная температура - максимум температуры воздуха на высоте 2 м над землей.
R - Количество осадков - Количество выпавших осадков за период времени, мм. При наведении курсора мыши на число - период времени, за который выпало указанное количество осадков.
R24 - Количество осадков - Количество выпавших осадков за 24 часа, мм.
S - Снежный покров - Высота снежного покрова, см. При наведении курсора мыши на число - состояние снежного покрова и степень покрытия местности в баллах.